This demonstration page uses our WeatherBlox Daily Observations layout. Learn more.

Left ArrowRight Arrow

39.92423, -83.80882

Hourly Observations for June 13, 2021

Temp ( °F °C ) Dew Point ( °F °C ) Humidity (%) Winds ( mph kmh ) Pressure ( in mb ) Visibility ( mi km ) Precip ( " mm )
12:56 am 00:56 Clear 74 23.3 70 21.1 88 88 WNW 7 11 29.87 1012 10 16 N/A
1:56 am 01:56 Clear 70 21.1 70 21.1 100 100 SE 5 7 29.85 1011 10 16 N/A
2:56 am 02:56 Clear 70 21 N/A N/A N N/A 29.83 1010 10 16 N/A
3:56 am 03:56 Clear 68 20 N/A N/A N N/A 29.85 1011 10 16 N/A
4:56 am 04:56 Clear 68 20 N/A N/A NW 3 6 29.86 1011 10 16 N/A
5:56 am 05:56 Clear 66 19 N/A N/A SW 3 6 29.86 1011 10 16 N/A
6:56 am 06:56 Sunny 70 21 N/A N/A WSW 5 7 29.87 1012 10 16 N/A
7:56 am 07:56 Sunny 74 23.3 68 20 82 82 WNW 5 7 29.88 1012 10 16 N/A
8:56 am 08:56 Sunny 77 25 69 20.6 77 77 NW 7 11 29.89 1012 10 16 N/A
9:56 am 09:56 Partly Cloudy 79 26.1 70 21.1 74 74 VRB 5 7 29.90 1013 10 16 N/A
10:56 am 10:56 Mostly Sunny 82 27.8 72 22.2 72 72 N 6 9 29.90 1013 10 16 N/A
11:56 am 11:56 Mostly Cloudy 84 28.9 73 22.8 70 70 NW 7 11 29.90 1013 10 16 N/A
12:56 pm 12:56 Mostly Sunny 86 30 73 22.8 65 65 NNW 8 13 29.90 1013 10 16 N/A
1:56 pm 13:56 Cloudy 86 30 71 21.7 61 61 NNW 14 22 29.89 1012 10 16 N/A
2:56 pm 14:56 Partly Cloudy 87 30.6 69 20.6 55 55 WNW 15 24 29.87 1011 10 16 N/A
3:56 pm 15:56 Partly Cloudy 87 30.6 68 20 53 53 NW 15 24 29.85 1011 10 16 N/A
4:56 pm 16:56 Sunny 86 30 65 18.3 49 49 NNW 16 26 29.83 1010 10 16 N/A
5:56 pm 17:56 Sunny 87 30.6 62 16.7 43 43 NW 13 20 29.85 1011 10 16 N/A
6:56 pm 18:56 Sunny 85 29.4 59 15 42 42 NNW 8 13 29.87 1011 10 16 N/A
7:56 pm 19:56 Sunny 81 27.2 60 15.6 49 49 N 10 17 29.85 1011 10 16 N/A
8:56 pm 20:56 Sunny 77 25 58 14.4 52 52 N 8 13 29.87 1012 10 16 N/A
9:56 pm 21:56 Clear 73 22.8 58 14.4 59 59 N 6 9 29.90 1013 10 16 N/A
10:56 pm 22:56 Clear 71 21.7 58 14.4 63 63 NNE 7 11 29.92 1013 10 16 N/A
11:56 pm 23:56 Clear 67 19.4 60 15.6 79 79 ESE 6 9 29.93 1014 10 16 N/A

Powered by AerisWeather